星链-33608 (STARLINK-33608)

导读

STARLINK-33608是美国SpaceX公司星链星座的一员,于2025年3月31日发射升空。作为星链全球卫星互联网组网的组成部分,它运行于近地轨道,旨在为全球偏远、基础设施缺失地区提供高速低延迟的宽带互联网接入服务,支撑视频通话、在线游戏等应用,助力实现星链星座覆盖全球的组网目标。

基本信息
目录编号:
63425
目录名称:
STARLINK-33608
国际标识:
2025-065AC
轨道中心:
EARTH
卫星名称:
星链-33608
卫星全名:
星链-33608 (STARLINK-33608)
卫星状态:
在轨 (已飞行529 天)
发射日期:
2025-03-31 UTC
国别 :
美国 (US)
星等 :
--
该卫星已列入 空间交会检测服务 Space Conjunction Data Service (SCDS) ,当前飞行风险评估等级: 高风险
轨道信息
数据来源 国际轨道数据
星历时间: 2026-09-11T10:07:35+0800
14小时前
查看轨道信息
半长轴: 6861.114km
偏心率: 0.0001157
轨道倾角: 43.002°
近地点辐角 292.398°
升交点赤经 140.028°
平近点角 67.675°
近地点: 482.183km
远地点: 483.771km
周期: 94.265分钟
每日圈数: 15.276044
详细信息
固有亮度:
5
最大亮度:
2.5
卫星平台:
Starlink V1.0
覆盖范围:
全球
运营商:
太空探索技术公司
运营商所在国:
美国
制造商(研发单位):
太空探索技术公司
制造商所在国:
美国
使用方式:
暂无
卫星简介
Starlink 计划是 SpaceX 推出的全球卫星互联网项目,通过发射低轨道卫星,为全球尤其是偏远地区提供高速、低延迟的互联网服务。自 2019 年起,Starlink 已部署数千颗卫星,旨在缩小全球数字鸿沟,推动互联网普及。该项目还为军事、航空等行业提供通信支持,带来广泛经济效益。
2D轨道图
3D轨道图
轨道高度分析图
轨道倾角分析图
轨道综合分析图
查看轨道综合分析图
交会数据列表
事件ID 空间交会对象 最接近时刻(TCA) 交会距离 交会风险概率(CRP) 交会风险指数(CRI) 操作
CDM_260913-063306-328006-342521
2026-09-13T
06:33:36+0000
0.198 km
中距离
6.98027E-4 高风险 0.92
CDM_260911-073005-885506-342521
2026-09-11T
07:30:18+0000
0.342 km
远距离
3.457072E-4 高风险 0.86
CDM_260912-224506-205406-342521
2026-09-12T
22:45:17+0000
0.424 km
远距离
2.345579E-4 高风险 0.82
CDM_260912-034106-306806-342521
2026-09-12T
03:41:17+0000
0.342 km
远距离
2.117735E-4 高风险 0.82
CDM_260913-000805-773306-342521
2026-09-13T
00:08:56+0000
0.412 km
远距离
1.911835E-4 高风险 0.81
CDM_260912-114606-342506-348721
2026-09-12T
11:46:51+0000
0.528 km
远距离
1.437684E-4 高风险 0.78
CDM_260913-052905-764406-342521
2026-09-13T
05:29:37+0000
0.505 km
远距离
5.104078E-5 中风险 0.69
CDM_260913-094106-342506-742421
2026-09-13T
09:41:20+0000
0.881 km
远距离
3.052414E-5 中风险 0.65
CDM_260913-014904-691206-342521
KSM1-A (46912)
2026-09-13T
01:49:00+0000
0.958 km
远距离
2.045836E-5 中风险 0.61
CDM_260911-182905-733406-342522
2026-09-11T
18:29:58+0000
1.029 km
极远距离
1.853931E-5 中风险 0.6
与全量物体交会距离演化趋势
与全量物体交会风险概率演化趋势